User: anonymous   Login
Location: Newark
(50.0306°N, 2.3272°E)
Time: 21:05:02
(UTC+00:00)
Language:

Transit 2A Rocket - Orbit

View from above orbital plane
View from above orbital plane
View from above satellite
View from above satellite

Ground track
Ground track

The orbit data is extracted from the following two-line orbital elements,

1 00047U 60007C   21023.13345253 -.00000033  00000-0  17626-4 0  9991
2 00047  66.6664 287.5733 0223159 144.0958 217.5382 14.42127052166352
Epoch (UTC): 23 January 2021 03:12:10
Eccentricity: 0.0223159
inclination: 66.6664°
perigee height: 592 km
apogee height: 910 km
right ascension of ascending node: 287.5733°
argument of perigee: 144.0958°
revolutions per day: 14.42127052
mean anomaly at epoch: 217.5382°
orbit number at epoch: 16635

The dashed part of the orbit path shows where the satellite is in the earth's shadow,  

DLR